Home > Time Zones > World Clock > Weather > Norway > Odda > Past weeks

Flag for Norway Weather past 2 weeks in Odda, Norway

Now
55 °F

Rain. Low clouds.


Feels Like: N/A
Forecast: 53 / 72 °F
Wind: N/A

Location: Sauda

Current Time: Aug 30, 2015 at 3:02:19 PM

Latest Report: Aug 30, 2015 at 2:00 PM


Visibility: 13 mi

Pressure: 30.10 "Hg

Humidity: 91%

Dew point: 53 °F

Location of OddaLocation

Historic Weather in Odda — Graph

°F

Odda temperature yesterday

Maximum temperature yesterday: 58 °F (at 4:00 PM)
Minimum temperature yesterday: 53 °F (at 8:00 AM)
Average temperature yesterday: 55 °F

Past Weeks' High & Low Weather Summary

 TemperatureHumidityPressure
High80 °F (Aug 23, 5:00 PM)93% (Aug 16, 9:00 AM)30.27 "Hg (Aug 16, 9:00 AM)
Low50 °F (Aug 23, 7:00 AM)20% (Aug 19, 2:00 PM)29.50 "Hg (Aug 25, 6:00 PM)
Average62 °F66%29.98 "Hg
* Reported Aug 15 2:00 PM — Aug 30 2:00 PM, Odda, Weather by CustomWeather, © 2015

Note: Actual official high and low records may vary slightly from our data, if they occured in-between our weather recording intervals... More about our weather records

Advertising

Odda weather history for previous 24 hours

 ConditionsComfort  
Time TempWeatherWind HumidityBarometerVisibility
2:00 PM
Sun, Aug 30
55 °FRain. Low clouds.N/A91%30.10 "Hg12 mi
1:00 PM55 °FCool.N/A92%30.10 "HgN/A
12:00 PM54 °FCool.N/A92%30.10 "HgN/A
11:00 AM53 °FCool.N/A91%30.10 "HgN/A
10:00 AM53 °FCool.N/A91%30.09 "HgN/A
9:00 AM53 °FCool.N/A91%30.09 "HgN/A
8:00 AM53 °FOvercast.N/A91%30.07 "Hg12 mi
7:00 AM53 °FCool.N/A91%30.06 "HgN/A
6:00 AM53 °FCool.N/A91%30.05 "HgN/A
5:00 AM53 °FOvercast.N/A91%30.06 "Hg12 mi
4:00 AM53 °FCool.N/A91%30.05 "HgN/A
3:00 AM53 °FCool.N/A91%30.04 "HgN/A
2:00 AM54 °FCool.N/A90%30.04 "HgN/A
1:00 AM54 °FCool.N/A91%30.04 "HgN/A
12:00 AM54 °FCool.N/A91%30.03 "HgN/A
10:00 PM
Sat, Aug 29
55 °FCool.N/A89%30.03 "HgN/A
9:00 PM55 °FCool.N/A88%30.01 "HgN/A
8:00 PM56 °FOvercast.N/A87%30.01 "Hg12 mi
6:00 PM56 °FCool.N/A86%30.02 "HgN/A
5:00 PM57 °FCool.N/A87%30.02 "HgN/A
4:00 PM58 °FCool.N/A86%30.00 "HgN/A
Weather by CustomWeather, © 2015

See weather overviewHow to use our weather pages